******************************************************************************* JPL/HORIZONS ATLAS (C/2025 N1) 2026-Jan-18 08:40:09 Rec #:90004923 (+COV) Soln.date: 2026-Jan-13_17:50:29 # obs: 782 (2025-2026) IAU76/J2000 helio. ecliptic osc. elements (au, days, deg., period=Julian yrs): EPOCH= 2460905.5 ! 2025-Aug-18.0000000 (TDB) RMSW= n.a. EC= 6.139413550853344 QR= 1.356424149784275 TP= 2460977.9823614582 OM= 322.1568791766976 W= 128.0098355570107 IN= 175.1131089044001 A= -.2639258616499261 MA= -166.8821503856566 ADIST= 9.999999E99 PER= 9.999999E99 N= 7.269108508 ANGMOM= .05353163 DAN= -3.48269 DDN= 2.02569 L= 194.0457595 B= 3.8486329 MOID= .36455101 TP= 2025-Oct-29.4823614582 Comet physical (GM= km^3/s^2; RAD= km): GM= n.a. RAD= n.a. M1= 12.5 M2= n.a. k1= 4.5 k2= n.a. PHCOF= n.a. Comet non-gravitational force model (AMRAT=m^2/kg;A1-A3=au/d^2;DT=days;R0=au): AMRAT= 0. DT= 0. A1= 4.512293815613E-8 A2= 1.720888257027E-8 A3= -5.830048322678E-9 Non-standard or simulated/proxy model: ALN= 1. NK= 0. NM= 2. NN= 0. R0= 1. COMET comments 1: soln ref.= JPL#48, data arc: 2025-05-15 to 2026-01-11 2: k1=4.5;Nongravitational accels. using g(r) = (1 au/ r)^2 for CO2 ******************************************************************************* ******************************************************************************* Ephemeris / WWW_USER Sun Jan 18 08:40:09 2026 Pasadena, USA / Horizons ******************************************************************************* Target body name: ATLAS (C/2025 N1) {source: JPL#48} Center body name: Sun (10) {source: DE441} Center-site name: BODYCENTRIC ******************************************************************************* Start time : A.D. 2025-Oct-29 11:15:38.0000 UT Stop time : A.D. 2025-Oct-29 11:15:42.0000 UT Step-size : 8 steps ******************************************************************************* Target pole/equ : undefined Target radii : undefined Center geodetic : 0.0, 0.0, -695700.0 {E-lon(deg),Lat(deg),Alt(km)} Center cylindric: 0.0, 0.0, 0.0 {E-lon(deg),Dxy(km),Dz(km)} Center pole/equ : IAU_SUN {East-longitude positive} Center radii : 695700.0, 695700.0, 695700.0 km {Equator_a, b, pole_c} Target primary : Sun Vis. interferer : None Rel. light bend : Sun {source: DE441} Rel. lght bnd GM: 1.3271E+11 km^3/s^2 Small-body perts: Yes {source: SB441-N16} Atmos refraction: NO (AIRLESS) RA format : HMS Time format : CAL Calendar mode : Mixed Julian/Gregorian EOP file : eop.260116.p260414 EOP coverage : DATA-BASED 1962-JAN-20 TO 2026-JAN-16. PREDICTS-> 2026-APR-13 Units conversion: 1 au= 149597870.700 km, c= 299792.458 km/s, 1 day= 86400.0 s Table cut-offs 1: Elevation (-90.0deg=NO ),Airmass n.a. , Daylight (NO ) Table cut-offs 2: Solar elongation ( 0.0,180.0=NO ),Local Hour Angle( 0.0=NO ) Table cut-offs 3: RA/DEC angular rate ( 0.0=NO ) ******************************************************************************* Initial IAU76/J2000 heliocentric ecliptic osculating elements (au, days, deg.): EPOCH= 2460905.5 ! 2025-Aug-18.0000000 (TDB) RMSW= n.a. EC= 6.139413550853344 QR= 1.356424149784275 TP= 2460977.9823614582 OM= 322.1568791766976 W= 128.0098355570107 IN= 175.1131089044001 Equivalent ICRF heliocentric cartesian coordinates (au, au/d): X=-3.900300151880665E-01 Y=-2.758710710914742E+00 Z=-9.593999469975449E-01 VX=-1.381284759182527E-02 VY= 3.144017522728612E-02 VZ= 1.194813792585534E-02 Comet physical (GM= km^3/s^2; RAD= km): GM= n.a. RAD= n.a. M1= 12.5 M2= n.a. k1= 4.5 k2= n.a. PHCOF= n.a. Comet non-gravitational force model (AMRAT=m^2/kg;A1-A3=au/d^2;DT=days;R0=au): AMRAT= 0. DT= 0. A1= 4.512293815613E-8 A2= 1.720888257027E-8 A3= -5.830048322678E-9 Non-standard or simulated/proxy model: ALN= 1. NK= 0. NM= 2. NN= 0. R0= 1. ********************************************************************************************************* Date__(UT)__HR:MN:SC.fff r rdot VmagSn VmagOb RNG_3sigma RNGRT_3sig ********************************************************************************************************* $$SOE 2025-Oct-29 11:15:38.000 1.356451098611 -0.0341244 68.3313932 68.3313929 467.6253 0.0001021 2025-Oct-29 11:15:38.500 1.356451098497 -0.0341145 68.3313932 68.3313929 467.6253 0.0001021 2025-Oct-29 11:15:39.000 1.356451098383 -0.0341046 68.3313932 68.3313929 467.6253 0.0001021 2025-Oct-29 11:15:39.500 1.356451098269 -0.0340947 68.3313932 68.3313929 467.6253 0.0001021 2025-Oct-29 11:15:40.000 1.356451098155 -0.0340848 68.3313932 68.3313929 467.6253 0.0001021 2025-Oct-29 11:15:40.500 1.356451098041 -0.0340749 68.3313932 68.3313929 467.6253 0.0001021 2025-Oct-29 11:15:41.000 1.356451097927 -0.0340650 68.3313932 68.3313929 467.6253 0.0001021 2025-Oct-29 11:15:41.500 1.356451097813 -0.0340551 68.3313932 68.3313929 467.6253 0.0001021 2025-Oct-29 11:15:42.000 1.356451097699 -0.0340452 68.3313932 68.3313929 467.6253 0.0001021 $$EOE ********************************************************************************************************* Column meaning: TIME Times PRIOR to 1962 are UT1, a mean-solar time closely related to the prior but now-deprecated GMT. Times AFTER 1962 are in UTC, the current civil or "wall-clock" time-scale. UTC is kept within 0.9 seconds of UT1 using integer leap-seconds for 1972 and later years. Conversion from the internal Barycentric Dynamical Time (TDB) of solar system dynamics to the non-uniform civil UT time-scale requested for output has not been determined for UTC times after the next July or January 1st. Therefore, the last known leap-second is used as a constant over future intervals. Time tags refer to the UT time-scale conversion from TDB on Earth regardless of observer location within the solar system, although clock rates may differ due to the local gravity field and no analog to "UT" may be defined for that location. Any 'b' symbol in the 1st-column denotes a B.C. date. First-column blank (" ") denotes an A.D. date. CALENDAR SYSTEM Mixed calendar mode was active such that calendar dates after AD 1582-Oct-15 (if any) are in the modern Gregorian system. Dates prior to 1582-Oct-5 (if any) are in the Julian calendar system, which is automatically extended for dates prior to its adoption on 45-Jan-1 BC. The Julian calendar is useful for matching historical dates. The Gregorian calendar more accurately corresponds to the Earth's orbital motion and seasons. A "Gregorian-only" calendar mode is available if such physical events are the primary interest. NOTE: "n.a." in output means quantity "not available" at the print-time. STATISTICAL UNCERTAINTIES Output includes formal +/- 3 standard-deviation statistical orbit uncertainty quantities. There is a 99.7% (1-D) or 98.9% (2-D) chance the actual value is within given bounds. These statistical calculations assume observational data errors are random. If there are systematic biases (such as timing, reduction or star-catalog errors), results can be optimistic. Because the epoch covariance is mapped using linearized variational partial derivatives, results can also be optimistic for times far from the solution epoch, particularly for objects having close planetary encounters. 'r rdot' = The Sun's apparent range ("r", light-time aberrated) and range-rate ("rdot") relative to the target center, as seen by the observer. A positive "rdot" means the target center was moving away from the Sun, negative means moving toward the Sun. Units: AU and KM/S 'VmagSn VmagOb' = Magnitude of target centers' velocity with respect to the Sun ("VmagSn") and the observer ("VmagOb") at the time light left the target center to be observed (print time minus down-leg light-time). These are absolute values of the velocity vectors (total speeds) and do NOT indicate direction of motion. Units: KM/S 'RNG_3sigma RNGRT_3sig' = Range and range rate (radial velocity) formal 3-standard-deviation uncertainties. Units: KM, KM/S Computations by ... Solar System Dynamics Group, Horizons On-Line Ephemeris System 4800 Oak Grove Drive, Jet Propulsion Laboratory Pasadena, CA 91109 USA General site: https://ssd.jpl.nasa.gov/ Mailing list: https://ssd.jpl.nasa.gov/email_list.html System news : https://ssd.jpl.nasa.gov/horizons/news.html User Guide : https://ssd.jpl.nasa.gov/horizons/manual.html Connect : browser https://ssd.jpl.nasa.gov/horizons/app.html#/x API https://ssd-api.jpl.nasa.gov/doc/horizons.html command-line telnet ssd.jpl.nasa.gov 6775 e-mail/batch https://ssd.jpl.nasa.gov/ftp/ssd/horizons_batch.txt scripts https://ssd.jpl.nasa.gov/ftp/ssd/SCRIPTS Author : Jon.D.Giorgini@jpl.nasa.gov ********************************************************************************************************* !$$SOF COMMAND = '3I' START_TIME = '2025-10-29 11:15:38' STOP_TIME = '2025-10-29 11:15:42' STEP_SIZE = '8' QUANTITIES = '19,22,39' CENTER = '@Sun'